CCA925 PHNL-KSAN

Flight info

Callsign CCA925
Flight time N/A
Altitude 37000
Route MKK5 KOLEA CLUTS CEBEN R465 CIVIT R585 FLEXX/N0435F390 R585 GITLE ADUMM GALIP AUDIA C1155 MQO LAX COMIX2
Aircraft B738/M-SDE2E3FGHIRWXY/LB1

Departure

Time N/A
Airport Daniel K. Inouye International Airport (PHNL)

Arrival

Time 2026-04-23 21:10
Airport San Diego International Airport (KSAN)
Time Latitude Longitude Altitude Speed Heading
2026-04-23 17:26 21.56608 -157.11421 24054 ft 410 kts 56°
2026-04-23 17:26 21.59713 -157.06224 24862 ft 416 kts 56°
2026-04-23 17:27 21.62860 -157.00951 25658 ft 422 kts 55°
2026-04-23 17:27 21.64450 -156.98287 26037 ft 425 kts 55°
2026-04-23 17:27 21.66050 -156.95602 26413 ft 428 kts 55°
2026-04-23 17:27 21.67664 -156.92894 26785 ft 431 kts 55°
2026-04-23 17:28 21.69285 -156.90174 27135 ft 434 kts 55°
2026-04-23 17:28 21.70920 -156.87428 27480 ft 437 kts 55°
2026-04-23 17:28 21.72562 -156.84668 27830 ft 440 kts 55°
2026-04-23 17:28 21.74217 -156.81886 28162 ft 443 kts 55°
2026-04-23 17:29 21.75878 -156.79091 28498 ft 446 kts 55°
2026-04-23 17:29 21.77555 -156.76268 28826 ft 449 kts 55°
2026-04-23 17:29 21.80937 -156.70571 29461 ft 454 kts 55°
2026-04-23 17:30 21.82066 -156.68669 29659 ft 456 kts 55°
2026-04-23 17:30 21.86058 -156.61935 30337 ft 462 kts 54°
2026-04-23 17:30 21.87790 -156.59011 30585 ft 464 kts 54°
2026-04-23 17:31 21.89526 -156.56077 30837 ft 466 kts 54°
2026-04-23 17:31 21.91279 -156.53114 31086 ft 468 kts 54°
2026-04-23 17:31 21.93031 -156.50152 31321 ft 470 kts 54°
2026-04-23 17:31 21.94793 -156.47170 31561 ft 473 kts 54°
2026-04-23 17:32 21.96560 -156.44177 31793 ft 474 kts 54°
2026-04-23 17:32 21.98333 -156.41175 32069 ft 475 kts 54°
2026-04-23 17:32 22.00104 -156.38170 32421 ft 474 kts 54°
2026-04-23 17:33 22.05132 -156.29635 33323 ft 473 kts 54°
2026-04-23 17:33 22.06895 -156.26641 33618 ft 473 kts 53°
2026-04-23 17:33 22.08656 -156.23648 33935 ft 473 kts 53°
2026-04-23 17:34 22.10416 -156.20655 34224 ft 472 kts 53°
2026-04-23 17:34 22.12173 -156.17665 34485 ft 472 kts 53°
2026-04-23 17:34 22.15659 -156.11729 35013 ft 471 kts 53°
2026-04-23 17:35 22.17410 -156.08745 35271 ft 470 kts 53°
2026-04-23 17:35 22.20903 -156.02787 35764 ft 469 kts 53°
2026-04-23 17:35 22.22638 -155.99825 36007 ft 469 kts 53°
2026-04-23 17:36 22.24386 -155.96839 36240 ft 469 kts 53°
2026-04-23 17:36 22.26130 -155.93859 36439 ft 469 kts 53°
2026-04-23 17:36 22.27875 -155.90876 36627 ft 470 kts 53°
2026-04-23 17:36 22.29621 -155.87889 36856 ft 470 kts 53°
2026-04-23 17:37 22.31362 -155.84908 37106 ft 469 kts 52°
2026-04-23 17:37 22.33103 -155.81926 37135 ft 472 kts 52°
2026-04-23 17:38 22.38349 -155.72931 37141 ft 468 kts 52°
2026-04-23 17:38 22.41801 -155.66997 37151 ft 465 kts 52°
2026-04-23 17:39 22.45232 -155.61099 37150 ft 462 kts 52°
2026-04-23 17:39 22.48645 -155.55226 37155 ft 462 kts 52°
2026-04-23 17:40 22.52070 -155.49329 37154 ft 462 kts 52°
2026-04-23 17:40 22.55474 -155.43458 37158 ft 464 kts 52°
2026-04-23 17:41 22.58915 -155.37517 37160 ft 467 kts 52°
2026-04-23 17:41 22.64109 -155.28536 37161 ft 471 kts 52°
2026-04-23 17:42 22.69335 -155.19481 37155 ft 474 kts 52°
2026-04-23 17:43 22.72836 -155.13407 37153 ft 475 kts 52°
2026-04-23 17:43 22.76338 -155.07322 37152 ft 476 kts 53°
2026-04-23 17:44 22.79835 -155.01239 37153 ft 475 kts 52°
2026-04-23 17:44 22.85068 -154.92124 37154 ft 473 kts 52°
2026-04-23 17:45 22.90272 -154.83044 37149 ft 472 kts 52°
2026-04-23 17:46 22.95454 -154.73987 37155 ft 470 kts 52°
2026-04-23 17:46 22.98875 -154.67999 37156 ft 469 kts 52°
2026-04-23 17:47 23.02355 -154.62007 37154 ft 468 kts 51°
2026-04-23 17:48 23.07773 -154.53203 37155 ft 468 kts 50°
2026-04-23 17:48 23.11391 -154.47325 37156 ft 468 kts 51°
2026-04-23 17:49 23.14999 -154.41413 37156 ft 469 kts 51°
2026-04-23 17:49 23.18602 -154.35484 37158 ft 470 kts 51°
2026-04-23 17:50 23.22212 -154.29537 37159 ft 471 kts 51°
2026-04-23 17:50 23.27636 -154.20589 37156 ft 473 kts 51°
2026-04-23 17:51 23.31235 -154.14646 37156 ft 474 kts 51°
2026-04-23 17:52 23.36675 -154.05649 37156 ft 474 kts 51°
2026-04-23 17:52 23.42113 -153.96639 37157 ft 475 kts 51°
2026-04-23 17:53 23.47549 -153.87616 37156 ft 475 kts 51°
2026-04-23 17:54 23.51172 -153.81594 37158 ft 475 kts 51°
2026-04-23 17:54 23.56600 -153.72558 37159 ft 475 kts 51°
2026-04-23 17:55 23.62022 -153.63515 37161 ft 475 kts 51°
2026-04-23 17:56 23.65630 -153.57488 37158 ft 475 kts 51°
2026-04-23 17:56 23.71018 -153.48476 37158 ft 475 kts 51°
2026-04-23 17:57 23.74622 -153.42437 37155 ft 475 kts 51°
2026-04-23 17:58 23.80030 -153.33374 37156 ft 475 kts 51°
2026-04-23 17:58 23.83648 -153.27333 37157 ft 475 kts 51°
2026-04-23 17:59 23.87270 -153.21282 37160 ft 475 kts 51°
2026-04-23 17:59 23.90887 -153.15229 37159 ft 476 kts 51°
2026-04-23 18:00 23.94502 -153.09169 37158 ft 476 kts 51°
2026-04-23 18:00 23.98115 -153.03102 37160 ft 476 kts 51°
2026-04-23 18:01 24.01729 -152.97027 37160 ft 476 kts 51°
2026-04-23 18:01 24.05343 -152.90945 37160 ft 477 kts 51°
2026-04-23 18:02 24.08342 -152.85892 37162 ft 477 kts 51°
2026-04-23 18:02 24.12542 -152.78807 37166 ft 477 kts 51°
2026-04-23 18:03 24.16152 -152.72710 37157 ft 477 kts 51°
2026-04-23 18:03 24.19759 -152.66609 37163 ft 477 kts 51°
2026-04-23 18:04 24.23363 -152.60506 37154 ft 477 kts 51°
2026-04-23 18:04 24.26357 -152.55431 37159 ft 477 kts 51°
2026-04-23 18:05 24.29960 -152.49315 37154 ft 477 kts 51°
2026-04-23 18:05 24.33562 -152.43196 37153 ft 477 kts 51°
2026-04-23 18:06 24.37161 -152.37071 37155 ft 477 kts 51°
2026-04-23 18:06 24.40759 -152.30942 37155 ft 477 kts 51°
2026-04-23 18:07 24.44349 -152.24819 37158 ft 477 kts 51°
2026-04-23 18:07 24.47946 -152.18676 37155 ft 477 kts 51°
2026-04-23 18:08 24.51533 -152.12542 37158 ft 477 kts 51°
2026-04-23 18:08 24.55097 -152.06439 37157 ft 477 kts 51°
2026-04-23 18:09 24.58680 -152.00297 37158 ft 477 kts 51°
2026-04-23 18:09 24.62260 -151.94152 37157 ft 478 kts 51°
2026-04-23 18:10 24.65840 -151.87999 37155 ft 478 kts 51°
2026-04-23 18:10 24.69419 -151.81840 37153 ft 478 kts 51°
2026-04-23 18:11 24.72996 -151.75678 37155 ft 478 kts 51°
2026-04-23 18:11 24.76570 -151.69511 37153 ft 478 kts 51°
2026-04-23 18:12 24.80147 -151.63332 37156 ft 478 kts 51°
2026-04-23 18:12 24.83720 -151.57151 37151 ft 479 kts 51°
2026-04-23 18:13 24.87293 -151.50963 37149 ft 479 kts 51°
2026-04-23 18:13 24.90861 -151.44776 37154 ft 479 kts 51°
2026-04-23 18:14 24.94425 -151.38587 37152 ft 478 kts 51°
2026-04-23 18:14 24.97988 -151.32393 37146 ft 478 kts 51°
2026-04-23 18:15 25.01551 -151.26189 37147 ft 478 kts 51°
2026-04-23 18:15 25.05082 -151.20034 37150 ft 478 kts 51°
2026-04-23 18:16 25.08637 -151.13829 37151 ft 478 kts 51°
2026-04-23 18:16 25.12186 -151.07626 37145 ft 478 kts 51°
2026-04-23 18:17 25.17508 -150.98310 37142 ft 478 kts 52°
2026-04-23 18:17 25.21052 -150.92094 37145 ft 478 kts 52°
2026-04-23 18:18 25.24595 -150.85885 37138 ft 476 kts 53°
2026-04-23 18:18 25.28222 -150.79767 37140 ft 475 kts 48°
2026-04-23 18:19 25.31873 -150.73683 37129 ft 473 kts 50°
2026-04-23 18:19 25.33429 -150.70446 37081 ft 485 kts 66°
2026-04-23 18:19 25.34400 -150.66875 37160 ft 486 kts 70°
2026-04-23 18:20 25.35610 -150.63416 37111 ft 476 kts 53°
2026-04-23 18:20 25.37447 -150.60425 37147 ft 468 kts 46°
2026-04-23 18:20 25.41563 -150.54850 37137 ft 469 kts 45°
2026-04-23 18:21 25.45453 -150.48998 37134 ft 475 kts 50°
2026-04-23 18:21 25.49055 -150.42828 37134 ft 479 kts 52°
2026-04-23 18:22 25.52557 -150.36553 37132 ft 480 kts 52°
2026-04-23 18:22 25.56064 -150.30257 37134 ft 481 kts 52°
2026-04-23 18:23 25.61341 -150.20843 37130 ft 481 kts 52°
2026-04-23 18:24 25.66639 -150.11403 37127 ft 481 kts 52°
2026-04-23 18:25 25.71928 -150.01956 37125 ft 480 kts 52°
2026-04-23 18:25 25.75440 -149.95669 37123 ft 479 kts 52°
2026-04-23 18:26 25.78945 -149.89388 37125 ft 479 kts 52°
2026-04-23 18:26 25.82442 -149.83113 37121 ft 478 kts 52°
2026-04-23 18:27 25.85940 -149.76828 37122 ft 478 kts 52°
2026-04-23 18:27 25.89427 -149.70553 37124 ft 477 kts 52°
2026-04-23 18:28 25.92904 -149.64286 37120 ft 477 kts 52°
2026-04-23 18:28 25.96380 -149.58015 37123 ft 477 kts 52°
2026-04-23 18:29 25.99860 -149.51726 37113 ft 477 kts 52°
2026-04-23 18:29 26.03330 -149.45447 37116 ft 477 kts 52°
2026-04-23 18:30 26.06803 -149.39155 37114 ft 477 kts 52°
2026-04-23 18:30 26.10273 -149.32859 37112 ft 478 kts 52°
2026-04-23 18:31 26.13744 -149.26550 37115 ft 478 kts 52°
2026-04-23 18:31 26.17213 -149.20238 37115 ft 479 kts 52°
2026-04-23 18:32 26.20685 -149.13911 37113 ft 479 kts 53°
2026-04-23 18:32 26.24134 -149.07619 37112 ft 479 kts 53°
2026-04-23 18:33 26.27604 -149.01277 37110 ft 479 kts 53°
2026-04-23 18:33 26.31075 -148.94927 37109 ft 480 kts 53°
2026-04-23 18:34 26.34539 -148.88579 37109 ft 479 kts 53°
2026-04-23 18:34 26.38002 -148.82223 37109 ft 479 kts 53°
2026-04-23 18:35 26.41458 -148.75873 37104 ft 479 kts 53°
2026-04-23 18:35 26.44919 -148.69503 37106 ft 479 kts 53°
2026-04-23 18:36 26.48368 -148.63147 37104 ft 479 kts 53°
2026-04-23 18:36 26.51815 -148.56786 37105 ft 479 kts 53°
2026-04-23 18:37 26.55260 -148.50420 37104 ft 479 kts 53°
2026-04-23 18:37 26.58699 -148.44056 37105 ft 479 kts 53°
2026-04-23 18:38 26.62138 -148.37681 37107 ft 479 kts 53°
2026-04-23 18:38 26.65571 -148.31310 37106 ft 479 kts 53°
2026-04-23 18:39 26.69003 -148.24932 37108 ft 479 kts 53°
2026-04-23 18:39 26.72431 -148.18552 37107 ft 479 kts 53°
2026-04-23 18:40 26.75858 -148.12164 37107 ft 479 kts 53°
2026-04-23 18:40 26.79283 -148.05771 37103 ft 479 kts 53°
2026-04-23 18:41 26.82679 -147.99422 37106 ft 479 kts 53°
2026-04-23 18:41 26.86118 -147.92984 37104 ft 479 kts 53°
2026-04-23 18:42 26.89514 -147.86617 37105 ft 479 kts 53°
2026-04-23 18:42 26.92932 -147.80200 37106 ft 479 kts 54°
2026-04-23 18:43 26.96341 -147.73789 37104 ft 479 kts 54°
2026-04-23 18:43 26.99746 -147.67379 37107 ft 479 kts 54°
2026-04-23 18:44 27.03148 -147.60963 37106 ft 479 kts 54°
2026-04-23 18:44 27.06251 -147.55102 37104 ft 479 kts 54°
2026-04-23 18:45 27.09649 -147.48677 37104 ft 478 kts 54°
2026-04-23 18:45 27.13041 -147.42253 37106 ft 478 kts 54°
2026-04-23 18:46 27.16431 -147.35823 37105 ft 478 kts 54°
2026-04-23 18:46 27.19814 -147.29397 37108 ft 478 kts 54°
2026-04-23 18:47 27.23197 -147.22962 37104 ft 478 kts 54°
2026-04-23 18:47 27.26304 -147.16321 37107 ft 481 kts 59°
2026-04-23 18:48 27.29172 -147.09531 37104 ft 481 kts 60°
2026-04-23 18:48 27.32035 -147.02727 37103 ft 481 kts 60°
2026-04-23 18:49 27.34925 -146.95947 37104 ft 481 kts 60°
2026-04-23 18:49 27.37833 -146.89174 37104 ft 480 kts 60°
2026-04-23 18:50 27.43555 -146.75825 37106 ft 480 kts 60°
2026-04-23 18:51 27.46449 -146.69050 37104 ft 480 kts 60°
2026-04-23 18:51 27.49344 -146.62261 37104 ft 480 kts 60°
2026-04-23 18:52 27.52230 -146.55481 37106 ft 480 kts 60°
2026-04-23 18:52 27.55096 -146.48737 37102 ft 480 kts 60°
2026-04-23 18:53 27.57980 -146.41942 37100 ft 481 kts 60°
2026-04-23 18:53 27.60859 -146.35144 37103 ft 481 kts 60°
2026-04-23 18:54 27.63738 -146.28337 37107 ft 481 kts 61°
2026-04-23 18:54 27.66612 -146.21528 37103 ft 481 kts 61°
2026-04-23 18:55 27.69488 -146.14704 37105 ft 481 kts 61°
2026-04-23 18:55 27.72363 -146.07872 37103 ft 482 kts 61°
2026-04-23 18:56 27.74749 -146.02192 37104 ft 482 kts 61°
2026-04-23 18:56 27.78077 -145.94256 37104 ft 482 kts 61°
2026-04-23 18:57 27.80944 -145.87407 37106 ft 482 kts 61°
2026-04-23 18:57 27.83803 -145.80565 37103 ft 482 kts 62°
2026-04-23 18:58 27.86658 -145.73724 37104 ft 481 kts 62°
2026-04-23 18:58 27.89507 -145.66881 37105 ft 481 kts 62°
2026-04-23 18:59 27.92350 -145.60043 37109 ft 480 kts 62°
2026-04-23 18:59 27.95190 -145.53202 37113 ft 480 kts 62°
2026-04-23 19:00 27.98021 -145.46370 37114 ft 480 kts 62°
2026-04-23 19:00 28.00851 -145.39527 37120 ft 480 kts 62°
2026-04-23 19:01 28.03677 -145.32683 37115 ft 480 kts 62°
2026-04-23 19:01 28.06499 -145.25837 37117 ft 480 kts 63°
2026-04-23 19:02 28.08844 -145.20138 37131 ft 480 kts 63°
2026-04-23 19:02 28.12154 -145.12083 37128 ft 486 kts 63°
2026-04-23 19:03 28.14993 -145.05162 37123 ft 489 kts 63°
2026-04-23 19:03 28.17870 -144.98131 37123 ft 489 kts 63°
2026-04-23 19:04 28.20703 -144.91197 37145 ft 487 kts 63°
2026-04-23 19:04 28.23506 -144.84213 37137 ft 486 kts 63°
2026-04-23 19:05 28.26339 -144.77274 37136 ft 484 kts 63°
2026-04-23 19:05 28.29169 -144.70374 37141 ft 482 kts 63°
2026-04-23 19:06 28.31977 -144.63483 37150 ft 481 kts 63°
2026-04-23 19:06 28.34775 -144.56579 37154 ft 481 kts 63°
2026-04-23 19:07 28.37561 -144.49685 37161 ft 481 kts 63°
2026-04-23 19:07 28.40352 -144.42769 37163 ft 482 kts 63°
2026-04-23 19:08 28.43146 -144.35832 37168 ft 483 kts 63°
2026-04-23 19:08 28.45954 -144.28850 37188 ft 490 kts 63°
2026-04-23 19:09 28.48802 -144.21759 37141 ft 491 kts 63°
2026-04-23 19:09 28.51589 -144.14793 37163 ft 480 kts 63°
2026-04-23 19:10 28.54354 -144.07880 37179 ft 481 kts 63°
2026-04-23 19:10 28.57127 -144.00939 37180 ft 482 kts 63°
2026-04-23 19:11 28.59898 -143.93987 37167 ft 483 kts 63°
2026-04-23 19:11 28.62669 -143.87021 37183 ft 482 kts 63°
2026-04-23 19:12 28.64966 -143.81237 37200 ft 484 kts 63°
2026-04-23 19:12 28.68198 -143.73086 37196 ft 487 kts 63°
2026-04-23 19:13 28.70983 -143.66045 37192 ft 487 kts 63°
2026-04-23 19:13 28.73762 -143.59007 37187 ft 487 kts 63°
2026-04-23 19:14 28.76534 -143.51974 37187 ft 486 kts 63°
2026-04-23 19:14 28.79295 -143.44957 37192 ft 485 kts 63°
2026-04-23 19:15 28.82050 -143.37941 37191 ft 484 kts 63°
2026-04-23 19:15 28.84798 -143.30931 37190 ft 484 kts 63°
2026-04-23 19:16 28.87540 -143.23922 37205 ft 483 kts 63°
2026-04-23 19:16 28.90276 -143.16919 37201 ft 483 kts 63°
2026-04-23 19:17 28.94374 -143.06400 37204 ft 484 kts 63°
2026-04-23 19:17 28.97106 -142.99374 37210 ft 484 kts 64°
2026-04-23 19:18 28.99676 -142.92751 37215 ft 485 kts 64°
2026-04-23 19:18 29.02269 -142.86058 37204 ft 487 kts 64°
2026-04-23 19:19 29.06361 -142.75471 37194 ft 488 kts 64°
2026-04-23 19:20 29.10460 -142.64832 37205 ft 487 kts 64°
2026-04-23 19:20 29.13191 -142.57729 37212 ft 488 kts 64°
2026-04-23 19:21 29.17275 -142.47080 37211 ft 487 kts 64°
2026-04-23 19:22 29.19990 -142.39984 37216 ft 487 kts 64°
2026-04-23 19:22 29.24053 -142.29339 37220 ft 486 kts 64°
2026-04-23 19:23 29.26755 -142.22245 37216 ft 486 kts 64°
2026-04-23 19:24 29.30796 -142.11608 37220 ft 486 kts 64°
2026-04-23 19:24 29.34830 -142.00960 37219 ft 486 kts 64°
2026-04-23 19:25 29.39769 -141.87884 37235 ft 494 kts 64°
2026-04-23 19:26 29.43825 -141.77100 37209 ft 485 kts 64°
2026-04-23 19:27 29.50481 -141.59347 37219 ft 487 kts 64°
2026-04-23 19:28 29.55834 -141.45009 37249 ft 488 kts 64°
2026-04-23 19:29 29.59826 -141.34275 37240 ft 489 kts 64°
2026-04-23 19:30 29.63831 -141.23474 37238 ft 489 kts 64°
2026-04-23 19:31 29.67820 -141.12688 37235 ft 489 kts 64°
2026-04-23 19:31 29.70473 -141.05495 37235 ft 489 kts 64°
2026-04-23 19:32 29.73123 -140.98297 37238 ft 488 kts 64°
2026-04-23 19:32 29.75764 -140.91107 37240 ft 488 kts 64°
2026-04-23 19:33 29.78408 -140.83896 37239 ft 488 kts 64°
2026-04-23 19:33 29.82358 -140.73095 37240 ft 488 kts 64°
2026-04-23 19:34 29.84987 -140.65887 37240 ft 488 kts 64°
2026-04-23 19:35 29.88921 -140.55077 37242 ft 488 kts 64°
2026-04-23 19:35 29.91537 -140.47867 37241 ft 488 kts 64°
2026-04-23 19:36 29.94151 -140.40652 37240 ft 488 kts 64°
2026-04-23 19:36 29.96699 -140.33397 37252 ft 489 kts 66°
2026-04-23 19:37 29.99099 -140.26040 37238 ft 489 kts 67°
2026-04-23 19:37 30.01468 -140.18684 37243 ft 489 kts 67°
2026-04-23 19:38 30.03855 -140.11333 37246 ft 489 kts 67°
2026-04-23 19:38 30.06253 -140.03983 37249 ft 490 kts 67°
2026-04-23 19:39 30.08656 -139.96618 37250 ft 490 kts 67°
2026-04-23 19:39 30.11035 -139.89309 37244 ft 489 kts 67°
2026-04-23 19:40 30.13421 -139.81955 37249 ft 489 kts 67°
2026-04-23 19:40 30.15799 -139.74611 37249 ft 488 kts 67°
2026-04-23 19:41 30.18171 -139.67270 37250 ft 487 kts 67°
2026-04-23 19:41 30.20534 -139.59938 37254 ft 487 kts 67°
2026-04-23 19:42 30.22893 -139.52606 37254 ft 486 kts 67°
2026-04-23 19:42 30.25245 -139.45278 37256 ft 486 kts 67°
2026-04-23 19:43 30.27593 -139.37944 37252 ft 486 kts 67°
2026-04-23 19:43 30.29935 -139.30616 37252 ft 486 kts 67°
2026-04-23 19:44 30.32276 -139.23272 37253 ft 486 kts 67°
2026-04-23 19:44 30.34611 -139.15932 37255 ft 486 kts 67°
2026-04-23 19:45 30.36926 -139.08638 37256 ft 486 kts 67°
2026-04-23 19:45 30.39254 -139.01287 37258 ft 486 kts 67°
2026-04-23 19:46 30.41576 -138.93937 37253 ft 486 kts 67°
2026-04-23 19:46 30.43895 -138.86582 37260 ft 486 kts 67°
2026-04-23 19:47 30.46210 -138.79224 37261 ft 486 kts 67°
2026-04-23 19:47 30.48519 -138.71867 37259 ft 486 kts 67°
2026-04-23 19:48 30.50825 -138.64503 37261 ft 486 kts 67°
2026-04-23 19:48 30.53125 -138.57140 37261 ft 486 kts 67°
2026-04-23 19:49 30.55421 -138.49776 37259 ft 485 kts 68°
2026-04-23 19:49 30.57713 -138.42405 37262 ft 485 kts 68°
2026-04-23 19:50 30.59982 -138.35091 37261 ft 485 kts 68°
2026-04-23 19:50 30.62265 -138.27719 37256 ft 485 kts 68°
2026-04-23 19:51 30.64543 -138.20344 37269 ft 485 kts 68°
2026-04-23 19:51 30.66813 -138.12976 37263 ft 485 kts 68°
2026-04-23 19:52 30.69082 -138.05596 37265 ft 485 kts 68°
2026-04-23 19:52 30.71347 -137.98214 37267 ft 485 kts 68°
2026-04-23 19:53 30.73608 -137.90826 37269 ft 485 kts 68°
2026-04-23 19:53 30.75865 -137.83433 37268 ft 485 kts 68°
2026-04-23 19:54 30.78120 -137.76030 37263 ft 486 kts 68°
2026-04-23 19:54 30.80374 -137.68621 37270 ft 486 kts 68°
2026-04-23 19:55 30.82634 -137.61220 37284 ft 486 kts 68°
2026-04-23 19:55 30.84899 -137.53793 37259 ft 487 kts 68°
2026-04-23 19:56 30.87126 -137.46357 37273 ft 487 kts 69°
2026-04-23 19:56 30.89322 -137.39002 37225 ft 476 kts 68°
2026-04-23 19:57 30.91509 -137.31709 37267 ft 486 kts 68°
2026-04-23 19:57 30.93756 -137.24222 37278 ft 492 kts 69°
2026-04-23 19:58 30.96012 -137.16679 37278 ft 494 kts 69°
2026-04-23 19:58 30.98258 -137.09143 37256 ft 488 kts 69°
2026-04-23 19:59 31.00462 -137.01726 37263 ft 484 kts 69°
2026-04-23 19:59 31.03608 -136.91125 37279 ft 485 kts 69°
2026-04-23 20:00 31.09261 -136.71990 37278 ft 488 kts 69°
2026-04-23 20:00 31.17837 -136.42729 37289 ft 491 kts 69°
2026-04-23 20:01 31.35429 -135.81916 37291 ft 496 kts 70°
2026-04-23 20:01 31.54682 -135.13722 37259 ft 497 kts 70°
2026-04-23 20:02 31.71279 -134.54167 37259 ft 491 kts 72°
2026-04-23 20:02 31.78624 -134.25927 37246 ft 482 kts 71°
2026-04-23 20:03 31.83396 -134.09018 37313 ft 502 kts 71°
2026-04-23 20:03 31.87982 -133.91956 37239 ft 484 kts 72°
2026-04-23 20:04 31.95471 -133.63740 37289 ft 487 kts 72°
2026-04-23 20:05 32.06027 -133.23749 37336 ft 493 kts 73°
2026-04-23 20:05 32.17187 -132.81204 37277 ft 492 kts 68°
2026-04-23 20:06 32.19971 -132.73922 37280 ft 484 kts 61°
2026-04-23 20:06 32.33022 -132.47180 37333 ft 485 kts 58°
2026-04-23 20:07 32.36166 -132.40089 37285 ft 488 kts 64°
2026-04-23 20:07 32.67227 -131.62488 37254 ft 487 kts 63°
2026-04-23 20:08 32.81769 -131.30541 37299 ft 481 kts 47°
2026-04-23 20:08 32.87597 -131.21275 37292 ft 481 kts 65°
2026-04-23 20:09 32.90177 -131.13940 37281 ft 480 kts 66°
2026-04-23 20:09 32.92982 -131.06745 37308 ft 478 kts 63°
2026-04-23 20:10 32.95980 -130.99677 37260 ft 478 kts 62°
2026-04-23 20:10 33.04976 -130.78679 37275 ft 476 kts 63°
2026-04-23 20:11 33.16760 -130.50479 37274 ft 474 kts 63°
2026-04-23 20:11 33.28460 -130.22311 37281 ft 473 kts 64°
2026-04-23 20:12 33.39991 -129.94313 37273 ft 472 kts 64°
2026-04-23 20:12 33.51522 -129.66089 37279 ft 472 kts 64°
2026-04-23 20:13 33.63012 -129.37731 37272 ft 472 kts 64°
2026-04-23 20:13 33.74431 -129.09310 37274 ft 473 kts 64°
2026-04-23 20:14 33.84958 -128.82893 37278 ft 474 kts 65°
2026-04-23 20:14 33.86939 -128.75394 37275 ft 470 kts 86°
2026-04-23 20:15 33.86755 -128.61968 37268 ft 467 kts 95°
2026-04-23 20:15 33.86984 -128.52409 37280 ft 471 kts 88°
2026-04-23 20:16 33.88277 -128.20908 37277 ft 473 kts 91°
2026-04-23 20:16 33.88907 -127.89589 37275 ft 475 kts 91°
2026-04-23 20:17 33.89568 -127.57322 37270 ft 477 kts 91°
2026-04-23 20:17 33.90126 -127.25309 37265 ft 479 kts 91°
2026-04-23 20:18 33.90604 -126.93243 37262 ft 480 kts 91°
2026-04-23 20:18 33.90997 -126.61326 37261 ft 480 kts 92°
2026-04-23 20:19 33.91308 -126.29220 37260 ft 480 kts 92°
2026-04-23 20:19 33.91538 -125.97071 37238 ft 479 kts 92°
2026-04-23 20:20 33.91682 -125.65001 37238 ft 479 kts 92°
2026-04-23 20:20 33.91744 -125.32906 37233 ft 479 kts 93°
2026-04-23 20:21 33.91722 -125.00797 37232 ft 479 kts 93°
2026-04-23 20:21 33.92009 -124.88630 37211 ft 483 kts 82°
2026-04-23 20:22 33.94650 -124.77068 37218 ft 484 kts 73°
2026-04-23 20:22 33.97588 -124.63703 37230 ft 482 kts 82°
2026-04-23 20:23 34.01995 -124.35713 37213 ft 484 kts 78°
2026-04-23 20:23 34.08039 -124.04071 37213 ft 484 kts 79°
2026-04-23 20:24 34.13740 -123.72293 37198 ft 485 kts 79°
2026-04-23 20:24 34.19410 -123.40402 37190 ft 486 kts 79°
2026-04-23 20:25 34.24376 -123.12052 37178 ft 486 kts 78°
2026-04-23 20:25 34.26622 -123.04379 37186 ft 485 kts 59°
2026-04-23 20:26 34.34171 -122.89627 37164 ft 485 kts 57°
2026-04-23 20:26 34.37773 -122.80959 37183 ft 485 kts 64°
2026-04-23 20:27 34.49933 -122.52057 37158 ft 484 kts 59°
2026-04-23 20:27 34.62646 -122.23224 37152 ft 485 kts 61°
2026-04-23 20:28 34.75179 -121.94203 37147 ft 485 kts 60°
2026-04-23 20:28 34.87647 -121.65133 37125 ft 485 kts 60°
2026-04-23 20:29 35.00035 -121.35991 37116 ft 484 kts 60°
2026-04-23 20:29 35.12367 -121.06731 37115 ft 484 kts 60°
2026-04-23 20:30 35.20588 -120.87080 37096 ft 484 kts 60°
2026-04-23 20:30 35.23186 -120.79507 37070 ft 486 kts 83°
2026-04-23 20:30 35.23240 -120.75406 37087 ft 481 kts 101°
2026-04-23 20:31 35.22477 -120.71460 37090 ft 474 kts 116°
2026-04-23 20:31 35.20975 -120.67946 37087 ft 463 kts 129°
2026-04-23 20:31 35.17235 -120.61559 37084 ft 462 kts 133°
2026-04-23 20:32 35.13560 -120.55149 37078 ft 466 kts 130°
2026-04-23 20:32 35.09983 -120.48531 37084 ft 467 kts 129°
2026-04-23 20:33 35.06387 -120.41912 37091 ft 467 kts 129°
2026-04-23 20:33 35.01507 -120.33065 37095 ft 468 kts 130°
2026-04-23 20:34 34.91105 -120.14379 37009 ft 470 kts 130°
2026-04-23 20:34 34.84156 -120.01938 37059 ft 467 kts 130°
2026-04-23 20:35 34.71565 -119.79517 37051 ft 467 kts 129°
2026-04-23 20:35 34.57052 -119.53843 37066 ft 464 kts 129°
2026-04-23 20:36 34.51455 -119.43997 37055 ft 464 kts 129°
2026-04-23 20:36 34.47826 -119.37624 37055 ft 462 kts 129°
2026-04-23 20:37 34.44140 -119.31163 37045 ft 462 kts 129°
2026-04-23 20:37 34.40482 -119.24762 37050 ft 462 kts 129°
2026-04-23 20:38 34.36825 -119.18375 37046 ft 462 kts 129°
2026-04-23 20:38 34.33180 -119.12020 37047 ft 462 kts 129°
2026-04-23 20:39 34.29512 -119.05637 37042 ft 462 kts 129°
2026-04-23 20:39 34.25836 -118.99250 36928 ft 464 kts 129°
2026-04-23 20:40 34.23980 -118.96032 36463 ft 465 kts 129°
2026-04-23 20:41 34.20454 -118.89920 35466 ft 463 kts 129°
2026-04-23 20:41 34.18597 -118.86704 35067 ft 459 kts 129°
2026-04-23 20:41 34.16796 -118.83589 34653 ft 455 kts 129°
2026-04-23 20:41 34.14990 -118.80467 34263 ft 452 kts 128°
2026-04-23 20:42 34.13199 -118.77376 33829 ft 450 kts 128°
2026-04-23 20:42 34.11412 -118.74294 33376 ft 447 kts 128°
2026-04-23 20:42 34.09638 -118.71237 32963 ft 443 kts 128°
2026-04-23 20:42 34.07875 -118.68200 32568 ft 440 kts 128°
2026-04-23 20:43 34.06324 -118.65532 32212 ft 437 kts 128°
2026-04-23 20:43 34.04605 -118.62575 31849 ft 433 kts 128°
2026-04-23 20:43 34.02879 -118.59610 31457 ft 430 kts 128°
2026-04-23 20:43 34.01164 -118.56667 31077 ft 428 kts 129°
2026-04-23 20:44 33.99458 -118.53742 30699 ft 425 kts 129°
2026-04-23 20:44 33.97765 -118.50841 30330 ft 422 kts 129°
2026-04-23 20:44 33.96081 -118.47957 29921 ft 420 kts 129°
2026-04-23 20:44 33.94405 -118.45090 29492 ft 417 kts 129°
2026-04-23 20:45 33.92720 -118.42270 29093 ft 412 kts 131°
2026-04-23 20:45 33.90914 -118.39618 28696 ft 407 kts 136°
2026-04-23 20:45 33.89007 -118.37125 28296 ft 402 kts 139°
2026-04-23 20:45 33.87048 -118.34758 27914 ft 398 kts 140°
2026-04-23 20:46 33.85089 -118.32412 27527 ft 395 kts 140°
2026-04-23 20:46 33.83173 -118.30050 27144 ft 393 kts 139°
2026-04-23 20:46 33.81302 -118.27670 26767 ft 391 kts 137°
2026-04-23 20:46 33.79455 -118.25282 26395 ft 389 kts 137°
2026-04-23 20:47 33.77623 -118.22906 26026 ft 387 kts 137°
2026-04-23 20:47 33.75805 -118.20530 25654 ft 385 kts 137°
2026-04-23 20:47 33.74001 -118.18158 25283 ft 384 kts 137°
2026-04-23 20:47 33.72205 -118.15791 24914 ft 382 kts 137°
2026-04-23 20:48 33.70419 -118.13440 24517 ft 380 kts 137°
2026-04-23 20:48 33.68639 -118.11100 24152 ft 379 kts 137°
2026-04-23 20:48 33.66862 -118.08768 23770 ft 378 kts 137°
2026-04-23 20:48 33.65088 -118.06442 23360 ft 377 kts 137°
2026-04-23 20:49 33.63322 -118.04128 22969 ft 375 kts 137°
2026-04-23 20:49 33.61564 -118.01826 22589 ft 373 kts 137°
2026-04-23 20:49 33.59818 -117.99540 22214 ft 370 kts 137°
2026-04-23 20:49 33.58082 -117.97270 21848 ft 368 kts 137°
2026-04-23 20:50 33.56360 -117.95020 21488 ft 365 kts 137°
2026-04-23 20:50 33.54640 -117.92789 21130 ft 363 kts 138°
2026-04-23 20:50 33.52873 -117.90652 20776 ft 359 kts 141°
2026-04-23 20:50 33.51074 -117.88605 20469 ft 355 kts 142°
2026-04-23 20:51 33.49274 -117.86577 20076 ft 355 kts 141°
2026-04-23 20:51 33.47495 -117.84546 19723 ft 354 kts 141°
2026-04-23 20:51 33.45724 -117.82502 19366 ft 353 kts 141°
2026-04-23 20:51 33.43962 -117.80461 19013 ft 351 kts 141°
2026-04-23 20:52 33.42174 -117.78476 18642 ft 349 kts 143°
2026-04-23 20:52 33.40381 -117.76563 18290 ft 344 kts 144°
2026-04-23 20:52 33.38585 -117.74671 17901 ft 343 kts 144°
2026-04-23 20:52 33.36798 -117.72785 17508 ft 343 kts 143°
2026-04-23 20:53 33.35013 -117.70895 17130 ft 342 kts 143°
2026-04-23 20:53 33.33245 -117.69014 16778 ft 340 kts 143°
2026-04-23 20:53 33.31504 -117.67158 16435 ft 338 kts 143°
2026-04-23 20:53 33.29728 -117.65264 16089 ft 337 kts 143°
2026-04-23 20:54 33.28010 -117.63432 15753 ft 335 kts 143°
2026-04-23 20:54 33.26274 -117.61584 15415 ft 333 kts 143°
2026-04-23 20:54 33.24546 -117.59746 15076 ft 332 kts 143°
2026-04-23 20:54 33.22824 -117.57928 14741 ft 330 kts 143°
2026-04-23 20:55 33.21100 -117.56115 14409 ft 329 kts 143°
2026-04-23 20:55 33.19388 -117.54316 14075 ft 328 kts 142°
2026-04-23 20:55 33.17679 -117.52518 13715 ft 326 kts 142°
2026-04-23 20:55 33.15978 -117.50731 13352 ft 325 kts 142°
2026-04-23 20:56 33.14286 -117.48953 13001 ft 323 kts 142°
2026-04-23 20:56 33.12634 -117.47335 12654 ft 319 kts 148°
2026-04-23 20:56 33.10813 -117.45830 12299 ft 317 kts 150°
2026-04-23 20:56 33.08988 -117.44371 11954 ft 315 kts 150°
2026-04-23 20:57 33.07035 -117.42781 11579 ft 313 kts 149°
2026-04-23 20:57 33.05250 -117.41305 11248 ft 312 kts 148°
2026-04-23 20:57 33.03477 -117.39825 10912 ft 310 kts 148°
2026-04-23 20:57 33.01725 -117.38354 10586 ft 305 kts 148°
2026-04-23 20:58 33.00014 -117.36914 10260 ft 296 kts 148°
2026-04-23 20:58 32.98351 -117.35516 10062 ft 289 kts 148°
2026-04-23 20:58 32.96720 -117.34148 9826 ft 286 kts 148°
2026-04-23 20:58 32.95096 -117.32788 9515 ft 285 kts 148°
2026-04-23 20:59 32.93488 -117.31443 9358 ft 278 kts 148°
2026-04-23 20:59 32.91918 -117.30129 9218 ft 276 kts 148°
2026-04-23 20:59 32.90331 -117.28807 8942 ft 279 kts 147°
2026-04-23 20:59 32.88746 -117.27490 8664 ft 277 kts 147°
2026-04-23 21:00 32.87168 -117.26178 8382 ft 276 kts 147°
2026-04-23 21:00 32.85596 -117.24873 8158 ft 276 kts 147°
2026-04-23 21:00 32.84005 -117.23553 7798 ft 281 kts 147°
2026-04-23 21:00 32.82405 -117.22222 7529 ft 280 kts 145°
2026-04-23 21:01 32.81115 -117.20542 7208 ft 281 kts 117°
2026-04-23 21:01 32.80489 -117.18382 6976 ft 272 kts 104°
2026-04-23 21:01 32.80066 -117.16217 6679 ft 266 kts 102°
2026-04-23 21:01 32.79622 -117.14116 6415 ft 261 kts 104°
2026-04-23 21:02 32.79157 -117.12053 6283 ft 255 kts 104°
2026-04-23 21:02 32.78697 -117.10034 6156 ft 250 kts 104°
2026-04-23 21:02 32.78251 -117.08056 6048 ft 246 kts 104°
2026-04-23 21:02 32.77812 -117.06112 5934 ft 240 kts 105°
2026-04-23 21:03 32.77351 -117.04199 5741 ft 241 kts 105°
2026-04-23 21:03 32.76889 -117.02313 5530 ft 234 kts 105°
2026-04-23 21:03 32.76447 -117.00505 5358 ft 220 kts 105°
2026-04-23 21:03 32.76034 -116.98821 5193 ft 205 kts 105°
2026-04-23 21:04 32.75489 -116.97309 4950 ft 195 kts 124°
2026-04-23 21:04 32.74555 -116.96203 4713 ft 187 kts 143°
2026-04-23 21:04 32.73410 -116.95574 4513 ft 176 kts 165°
2026-04-23 21:04 32.72216 -116.95426 4293 ft 171 kts 185°
2026-04-23 21:05 32.71066 -116.95761 4114 ft 171 kts 202°
2026-04-23 21:05 32.70054 -116.96508 3920 ft 173 kts 223°
2026-04-23 21:05 32.69298 -116.97616 3721 ft 175 kts 239°
2026-04-23 21:05 32.68838 -116.98953 3462 ft 174 kts 261°
2026-04-23 21:06 32.68850 -117.00350 3231 ft 167 kts 279°
2026-04-23 21:06 32.69119 -117.01654 3043 ft 159 kts 287°
2026-04-23 21:06 32.69421 -117.02868 2879 ft 147 kts 287°
2026-04-23 21:06 32.69708 -117.04020 2678 ft 144 kts 286°
2026-04-23 21:07 32.69985 -117.05136 2502 ft 137 kts 287°
2026-04-23 21:07 32.70252 -117.06218 2321 ft 136 kts 286°
2026-04-23 21:07 32.70517 -117.07297 2154 ft 137 kts 285°
2026-04-23 21:07 32.70750 -117.08244 1993 ft 139 kts 286°
2026-04-23 21:08 32.71018 -117.09338 1766 ft 136 kts 286°
2026-04-23 21:08 32.71280 -117.10407 1552 ft 133 kts 286°
2026-04-23 21:08 32.71538 -117.11468 1357 ft 134 kts 286°
2026-04-23 21:08 32.71797 -117.12536 1153 ft 134 kts 285°
2026-04-23 21:09 32.72059 -117.13608 939 ft 137 kts 284°
2026-04-23 21:09 32.72323 -117.14709 733 ft 137 kts 285°
2026-04-23 21:09 32.72595 -117.15816 543 ft 142 kts 285°
2026-04-23 21:09 32.72878 -117.16960 326 ft 146 kts 286°
2026-04-23 21:10 32.73137 -117.18084 84 ft 135 kts 286°
2026-04-23 21:10 32.73373 -117.19069 22 ft 108 kts 288°
2026-04-23 21:10 32.73502 -117.19581 23 ft 14 kts 286°
2026-04-23 21:10 32.73519 -117.19649 24 ft 22 kts 286°
2026-04-23 21:11 32.73584 -117.19912 25 ft 39 kts 286°
2026-04-23 21:11 32.73639 -117.20133 23 ft 12 kts 283°
2026-04-23 21:11 32.73589 -117.20213 22 ft 15 kts 200°
2026-04-23 21:11 32.73515 -117.20237 22 ft 8 kts 195°
2026-04-23 21:12 32.73475 -117.20249 22 ft 10 kts 195°
2026-04-23 21:12 32.73415 -117.20271 22 ft 10 kts 196°
2026-04-23 21:12 32.73382 -117.20287 22 ft 1 kts 236°
2026-04-23 21:12 32.73382 -117.20296 22 ft 2 kts 268°
2026-04-23 21:13 32.73381 -117.20319 22 ft 1 kts 265°
2026-04-23 21:13 32.73379 -117.20342 22 ft 5 kts 264°
2026-04-23 21:13 32.73378 -117.20349 22 ft 0 kts 262°